DMSP 5D-2 F8 DEB

Satellite information

Favourite Embed

Satellite Type and Status

DEBRISIN ORBIT

Key statistics

Satellite DMSP 5D-2 F8 DEB at a glance.

Uptime

13838

Days in orbit

Revolutions

≈ 14.2

Per day

Orbit

SSO

Sun Synchronous Orbit

Inclination

98.7

Latest

Satellite identification and parameters

Extended collection of information and parameters for DMSP 5D-2 F8 DEB.

Object identification

Identified? True

Debris? True

Object name: DMSP 5D-2 F8 DEB

International designator: 1987-053J

Object number (NORAD): 60251

Object ID (CCSDS): 60251

Country: UNITED STATES OF AMERICA (US)

Current information (Y/N): Y

RCS size: MEDIUM

Orbital parameters

Period: 101.067 minutes

Inclination: 98.7346 deg

SMA: 7187.295 km

Apoapsis: 820.149 km

Periapsis: 798.171 km

RAAN: 317.5536 deg

Eccentricy: 0.0015289

Argument of periapsis: 200.5029 deg

Mean anomaly: 159.5538 deg

Mean motion: 14.24802104 rev/day

Mean motion (dot): 0.00003086 rev/day2

B* drag term: 0.0013407 1/REarth

Two-line elements (TLE)

Creation date: May 9, 2025, 2:46 a.m.

Reference frame: TEME

Reference center: EARTH

Epoch: May 8, 2025, 9:41 p.m. UTC

TLE line 0: 0 DMSP 5D-2 F8 DEB

TLE line 1: 1 60251U 87053J 25128.90379480 .00003086 00000-0 13407-2 0 9999

TLE line 2: 2 60251 98.7346 317.5536 0015289 200.5029 159.5538 14.24802104 41621

Live tracking on map

Real-time ground track for satellite DMSP 5D-2 F8 DEB.

In-orbit conjunctions

A list of the most updated potential collisions computed for object DMSP 5D-2 F8 DEB.

Target Orbit TCA Probability of collision Miss distance Type
CZ-6A DEB LEO 2025-01-19 12:47:56 0.0001231814 312.0 (m) DEBRIS
CZ-6A DEB LEO 2024-11-28 15:10:12 0.0001507537 420.0 (m) DEBRIS
CZ-6A DEB SSO 2024-11-18 17:15:23 0.002541722 83.0 (m) DEBRIS
FENGYUN 1C DEB SSO 2024-11-10 19:03:32 0.0001324581 610.0 (m) DEBRIS
FENGYUN 1C DEB SSO 2024-10-18 04:09:39 0.0001208882 682.0 (m) DEBRIS

Associated space launch

Military meteorological satellite

DMSP 5D-2 F8 DEB was lifted into orbit during the mission ‘Atlas E | DMSP-5D2 F8’, on board a Atlas E space rocket.

The launch took place on June 20, 1987, 2:34 a.m. from Space Launch Complex 3W.

For more information about the launch, click the button.

Launch to space Atlas E | DMSP-5D2 F8
Atlas E | DMSP-5D2 F8

Agency: N/A

Status: Launch Successful

Launch date: June 20, 1987, 2:34 a.m. UTC

Rocket: Atlas E

Launch pad: Space Launch Complex 3W

Location: Vandenberg SFB, CA, USA

...

Latest news about this satellite

There are no fresh news available about this satellite. Check back as we update our databases every day.


Newsletter sign-up

Weekly statistics, charts and insights to help you stay on top of the space industry.